Weather History for KCRX - November, 2013

Change the Weather History Date:

Sunday, November 10, 2013

  Actual Average Record
Temperature  
Mean Temperature 54 °F -  
Max Temperature 68 °F 64 °F 80 °F (1949)
Min Temperature 39 °F 39 °F 20 °F (1991)
Degree Days  
Heating Degree Days 12    
Growing Degree Days 4 (Base 50)    
Moisture  
Dew Point 41 °F    
Average Humidity 71    
Maximum Humidity 100    
Minimum Humidity 32    
Precipitation  
Precipitation 0.00 in - - ()
Sea Level Pressure  
Sea Level Pressure 30.30 in    
Wind  
Wind Speed 3 mph (NE)    
Max Wind Speed 12 mph    
Max Gust Speed -    
Visibility 9 miles    
Events      
Averages and records for this station are not official NWS values.
T = Trace of Precipitation, MM = Missing Value Source: NWS Daily Summary

Daily Weather History Graph

Daily Weather History Graph

Search for Another Location

Airport or City:

Trip Planner

Search our weather history database for the weather conditions in past years. The results will help you decide how hot, cold, wet, or windy it might be!

Date:

Astronomy

Nov. 10, 2013 Rise Set
Actual Time 6:24 AM CST 4:52 PM CST
Civil Twilight 5:57 AM CST 5:18 PM CST
Nautical Twilight 5:27 AM CST 5:49 PM CST
Astronomical Twilight 4:57 AM CST 6:18 PM CST
Moon 12:42 PM CST (11/10) No Moon Set
Length of Visible Light 11h 21m
Length of Day
10h 28m
First Quarter, 56% of the Moon is Illuminated
Nov 10
First Quarter
Nov 17
Full
Nov 25
Last Quarter
Dec 2
New
Dec 9
First Quarter

Hourly Weather History & Observations

Time (CST) Temp. Windchill Dew Point Humidity Pressure Visibility Wind Dir Wind Speed Gust Speed Precip Events Conditions
12:10 AM 42.8 °F 41.1 °F 41.0 °F 93% 30.27 in 10.0 mi SE 3.5 mph - N/A   Mostly Cloudy
12:30 AM 44.6 °F 41.4 °F 41.0 °F 87% 30.27 in 10.0 mi SSE 5.8 mph - N/A   Mostly Cloudy
12:50 AM 42.8 °F - 41.0 °F 93% 30.27 in 10.0 mi Calm Calm - N/A   Clear
1:10 AM 42.8 °F - 41.0 °F 93% 30.28 in 10.0 mi Calm Calm - N/A   Clear
1:30 AM 42.8 °F - 41.0 °F 93% 30.28 in 10.0 mi Calm Calm - N/A   Mostly Cloudy
1:50 AM 42.8 °F 41.1 °F 41.0 °F 93% 30.27 in 10.0 mi South 3.5 mph - N/A   Overcast
2:10 AM 44.6 °F - 41.0 °F 87% 30.28 in 10.0 mi Calm Calm - N/A   Overcast
2:30 AM 42.8 °F 40.1 °F 41.0 °F 93% 30.28 in 10.0 mi SSE 4.6 mph - N/A   Scattered Clouds
2:50 AM 42.8 °F - 41.0 °F 93% 30.28 in 10.0 mi Calm Calm - N/A   Clear
3:10 AM 42.8 °F - 41.0 °F 93% 30.29 in 10.0 mi Calm Calm - N/A   Scattered Clouds
3:30 AM 42.8 °F - 41.0 °F 93% 30.29 in 10.0 mi Calm Calm - N/A   Mostly Cloudy
3:50 AM 44.6 °F - 41.0 °F 87% 30.29 in 10.0 mi Calm Calm - N/A   Overcast
4:10 AM 44.6 °F - 41.0 °F 87% 30.29 in 10.0 mi Calm Calm - N/A   Overcast
4:30 AM 44.6 °F - 41.0 °F 87% 30.29 in 10.0 mi Calm Calm - N/A   Overcast
4:50 AM 44.6 °F 43.1 °F 41.0 °F 87% 30.29 in 10.0 mi South 3.5 mph - N/A   Mostly Cloudy
5:10 AM 42.8 °F - 41.0 °F 93% 30.30 in 10.0 mi Calm Calm - N/A   Partly Cloudy
5:30 AM 41.0 °F - 41.0 °F 100% 30.30 in 10.0 mi Calm Calm - N/A   Clear
5:50 AM 41.0 °F - 39.2 °F 93% 30.31 in 9.0 mi Calm Calm - N/A   Scattered Clouds
6:10 AM 41.0 °F - 39.2 °F 93% 30.30 in 4.0 mi Calm Calm - N/A   Partly Cloudy
6:30 AM 41.0 °F - 39.2 °F 93% 30.31 in 1.0 mi Calm Calm - N/A   Clear
6:50 AM 41.0 °F - 39.2 °F 93% 30.31 in 1.2 mi Calm Calm - N/A   Clear
7:10 AM 42.8 °F - 41.0 °F 93% 30.32 in 3.0 mi Calm Calm - N/A   Clear
7:30 AM 44.6 °F - 41.0 °F 87% 30.33 in 9.0 mi Calm Calm - N/A   Clear
7:50 AM 46.4 °F - 42.8 °F 87% 30.34 in 10.0 mi Calm Calm - N/A   Clear
8:10 AM 48.2 °F - 44.6 °F 87% 30.34 in 10.0 mi Calm Calm - N/A   Clear
8:30 AM 50.0 °F - 44.6 °F 82% 30.35 in 10.0 mi Calm Calm - N/A   Clear
8:50 AM 53.6 °F - 44.6 °F 72% 30.35 in 10.0 mi North 4.6 mph - N/A   Clear
9:10 AM 57.2 °F - 46.4 °F 67% 30.35 in 10.0 mi North 6.9 mph - N/A   Clear
9:30 AM 59.0 °F - 46.4 °F 63% 30.34 in 10.0 mi North 9.2 mph - N/A   Clear
9:50 AM 59.0 °F - 46.4 °F 63% 30.35 in 10.0 mi ENE 6.9 mph - N/A   Clear
10:10 AM 60.8 °F - 46.4 °F 59% 30.35 in 10.0 mi NNE 9.2 mph - N/A   Scattered Clouds
10:30 AM 62.6 °F - 46.4 °F 55% 30.34 in 10.0 mi NE 8.1 mph - N/A   Mostly Cloudy
10:50 AM 62.6 °F - 44.6 °F 52% 30.34 in 5.0 mi ENE 9.2 mph - N/A   Haze
11:10 AM 62.6 °F - 44.6 °F 52% 30.33 in 9.0 mi NNE 10.4 mph - N/A   Clear
11:30 AM 64.4 °F - 44.6 °F 49% 30.32 in 10.0 mi NE 4.6 mph - N/A   Clear
11:50 AM 64.4 °F - 42.8 °F 45% 30.32 in 10.0 mi ENE 6.9 mph - N/A   Clear
12:10 PM 66.2 °F - 42.8 °F 43% 30.31 in 4.0 mi North 6.9 mph - N/A   Haze
12:30 PM 66.2 °F - 41.0 °F 40% 30.30 in 10.0 mi NNE 9.2 mph - N/A   Clear
12:50 PM 66.2 °F - 41.0 °F 40% 30.29 in 10.0 mi NE 6.9 mph - N/A   Clear
1:10 PM 68.0 °F - 41.0 °F 37% 30.29 in 10.0 mi ENE 6.9 mph - N/A   Clear
1:30 PM 68.0 °F - 39.2 °F 35% 30.29 in 10.0 mi NNE 11.5 mph - N/A   Clear
1:50 PM 68.0 °F - 39.2 °F 35% 30.28 in 5.0 mi NNE 9.2 mph - N/A   Haze
2:10 PM 68.0 °F - 39.2 °F 35% 30.28 in 10.0 mi NNE 4.6 mph - N/A   Clear
2:30 PM 68.0 °F - 39.2 °F 35% 30.28 in 8.0 mi ENE 6.9 mph - N/A   Clear
2:50 PM 68.0 °F - 39.2 °F 35% 30.28 in 9.0 mi NE 10.4 mph - N/A   Clear
3:10 PM 68.0 °F - 37.4 °F 33% 30.28 in 10.0 mi NNE 9.2 mph - N/A   Clear
3:30 PM 66.2 °F - 37.4 °F 35% 30.28 in 10.0 mi NE 10.4 mph - N/A   Clear
3:50 PM 66.2 °F - 37.4 °F 35% 30.28 in 10.0 mi NNE 8.1 mph - N/A   Clear
4:10 PM 66.2 °F - 35.6 °F 32% 30.28 in 10.0 mi NNE 6.9 mph - N/A   Clear
4:30 PM 64.4 °F - 37.4 °F 37% 30.29 in 10.0 mi NE 9.2 mph - N/A   Clear
4:50 PM 62.6 °F - 37.4 °F 39% 30.29 in 10.0 mi NNE 3.5 mph - N/A   Clear
5:10 PM 59.0 °F - 37.4 °F 45% 30.29 in 5.0 mi Calm Calm - N/A   Haze
5:30 PM 59.0 °F - 37.4 °F 45% 30.29 in 10.0 mi Calm Calm - N/A   Clear
5:50 PM 55.4 °F - 41.0 °F 58% 30.30 in 2.0 mi Calm Calm - N/A   Haze
6:10 PM 51.8 °F - 41.0 °F 67% 30.30 in 10.0 mi WNW 4.6 mph - N/A   Clear
6:30 PM 48.2 °F - 41.0 °F 76% 30.30 in 10.0 mi Calm Calm - N/A   Clear
6:50 PM 48.2 °F - 41.0 °F 76% 30.30 in 10.0 mi Calm Calm - N/A   Clear
7:10 PM 46.4 °F - 41.0 °F 81% 30.30 in 10.0 mi Calm Calm - N/A   Clear
7:30 PM 46.4 °F - 41.0 °F 81% 30.30 in 10.0 mi Calm Calm - N/A   Clear
7:50 PM 46.4 °F - 41.0 °F 81% 30.30 in 10.0 mi Calm Calm - N/A   Clear
8:10 PM 46.4 °F - 39.2 °F 76% 30.30 in 10.0 mi Calm Calm - N/A   Clear
8:30 PM 44.6 °F - 39.2 °F 81% 30.30 in 10.0 mi Calm Calm - N/A   Clear
8:50 PM 44.6 °F 43.1 °F 39.2 °F 81% 30.31 in 10.0 mi WNW 3.5 mph - N/A   Clear
9:10 PM 46.4 °F - 39.2 °F 76% 30.31 in 10.0 mi Calm Calm - N/A   Clear
9:30 PM 44.6 °F 43.1 °F 39.2 °F 81% 30.31 in 10.0 mi WNW 3.5 mph - N/A   Clear
9:50 PM 41.0 °F - 39.2 °F 93% 30.30 in 10.0 mi Calm Calm - N/A   Clear
10:10 PM 41.0 °F - 37.4 °F 87% 30.30 in 6.0 mi Calm Calm - N/A   Clear
10:30 PM 41.0 °F - 39.2 °F 93% 30.30 in 10.0 mi Calm Calm - N/A   Clear
10:50 PM 41.0 °F - 39.2 °F 93% 30.29 in 10.0 mi Calm Calm - N/A   Clear
11:10 PM 41.0 °F - 39.2 °F 93% 30.30 in 10.0 mi Calm Calm - N/A   Clear
11:30 PM 39.2 °F - 37.4 °F 93% 30.29 in 10.0 mi Calm Calm - N/A   Clear
11:50 PM 39.2 °F - 39.2 °F 100% 30.29 in 10.0 mi Calm Calm - N/A   Clear